Zurück zum Katalog

STARLINK-33841

AktivKommunikationVLEO
NORAD 63771·PAYLOAD·🇺🇸 United States

Gestartet Apr 29, 2025 von Cape Canaveral Space Force Station

Loading…

Nächste Überflüge (nächste 24 Stunden)

TLE

AktuellSource: CelesTrak SupGP

Epoche: Sep 15, 2026, 02:23 UTC

1 63771C 25089W   26258.09979167 -.00021450  00000+0 -77687-3 0  2588
2 63771  43.0025  55.4112 0001444 269.6309 207.9808 15.27591390    13

Verfolge STARLINK-33841 in Echtzeit mit AllMySat

Download on the App Store